| time (UTC) | temp F | wind direction | speed MPH | gust MPH | rain 1hr in | rain 24hr in | rain mn in | humidity % | barometer mb |
| 20260506011403 | 63 | 137 | 4.0 | 10.0 | 0.00 | 0.00 | 0.00 | 78 | 1000.2 |
| 20260506010629 | 57 | 132 | 5.0 | 9.0 | 0.00 | 0.00 | 0.00 | 87 | 1000.2 |
| 20260505161901 | 57 | 180 | 8.0 | 10.0 | 0.00 | 0.00 | 0.00 | 88 | 1000.2 |
| 20260505160906 | 57 | 185 | 7.0 | 12.0 | 0.00 | 0.00 | 0.00 | 88 | 1000.2 |
| 20260505152401 | 57 | 155 | 9.0 | 12.0 | 0.00 | 0.00 | 0.00 | 88 | 1000.2 |
| 20260505151402 | 56 | 146 | 8.0 | 15.0 | 0.00 | 0.00 | 0.00 | 88 | 1000.2 |
| 20260505150900 | 56 | 159 | 11.0 | 15.0 | 0.00 | 0.00 | 0.00 | 89 | 1000.2 |
| 20260505140347 | 56 | 142 | 9.0 | 13.0 | 0.00 | 0.00 | 0.00 | 89 | 1000.2 |
| 20260505124901 | 56 | 163 | 11.0 | 13.0 | 0.00 | 0.00 | 0.00 | 90 | 1000.2 |
| 20260505123856 | 56 | 186 | 11.0 | 15.0 | 0.00 | 0.00 | 0.00 | 89 | 1000.2 |
| 20260505123348 | 56 | 174 | 10.0 | 14.0 | 0.00 | 0.00 | 0.00 | 90 | 1000.2 |
| 20260505122400 | 56 | 132 | 8.0 | 15.0 | 0.00 | 0.00 | 0.00 | 89 | 1000.2 |
| 20260505121402 | 56 | 153 | 10.0 | 14.0 | 0.00 | 0.00 | 0.00 | 89 | 1000.2 |
| 20260505120859 | 56 | 123 | 8.0 | 16.0 | 0.00 | 0.00 | 0.00 | 89 | 1000.2 |
| 20260505120353 | 56 | 151 | 12.0 | 15.0 | 0.00 | 0.00 | 0.00 | 90 | 1000.2 |
| 20260505115851 | 56 | 161 | 12.0 | 14.0 | 0.00 | 0.00 | 0.00 | 90 | 1000.2 |
| 20260505114906 | 56 | 142 | 10.0 | 15.0 | 0.00 | 0.00 | 0.00 | 91 | 1000.2 |
| 20260505114349 | 56 | 151 | 11.0 | 17.0 | 0.00 | 0.00 | 0.00 | 90 | 1000.2 |
| 20260505113358 | 56 | 136 | 11.0 | 16.0 | 0.00 | 0.00 | 0.00 | 91 | 1000.2 |
| 20260505112855 | 56 | 145 | 11.0 | 16.0 | 0.00 | 0.00 | 0.00 | 91 | 1000.2 |
| 20260505111904 | 56 | 167 | 11.0 | 15.0 | 0.00 | 0.00 | 0.00 | 91 | 1000.2 |
| 20260505111351 | 56 | 146 | 10.0 | 15.0 | 0.00 | 0.00 | 0.00 | 91 | 1000.2 |
| 20260505110851 | 56 | 157 | 12.0 | 15.0 | 0.00 | 0.00 | 0.00 | 91 | 1000.2 |
| 20260505101403 | 56 | 127 | 9.0 | 14.0 | 0.00 | 0.00 | 0.00 | 90 | 1000.2 |
| 20260505100900 | 56 | 144 | 8.0 | 13.0 | 0.00 | 0.00 | 0.00 | 91 | 1000.2 |
| 20260505100355 | 56 | 155 | 9.0 | 13.0 | 0.00 | 0.00 | 0.00 | 90 | 1000.2 |
| 20260505095355 | 56 | 138 | 8.0 | 12.0 | 0.00 | 0.00 | 0.00 | 90 | 1000.2 |
| 20260505094401 | 56 | 148 | 8.0 | 11.0 | 0.00 | 0.00 | 0.00 | 89 | 1000.2 |
| 20260505093405 | 56 | 143 | 8.0 | 10.0 | 0.00 | 0.00 | 0.00 | 90 | 1000.2 |
| 20260505092353 | 56 | 133 | 7.0 | 10.0 | 0.00 | 0.00 | 0.00 | 89 | 1000.2 |
| 20260505091402 | 57 | 153 | 8.0 | 13.0 | 0.00 | 0.00 | 0.00 | 89 | 1000.2 |
| 20260505090856 | 57 | 159 | 7.0 | 11.0 | 0.00 | 0.00 | 0.00 | 89 | 1000.2 |
| 20260505085900 | 57 | 159 | 7.0 | 10.0 | 0.00 | 0.00 | 0.00 | 89 | 1000.2 |
| 20260505084905 | 57 | 166 | 7.0 | 14.0 | 0.00 | 0.00 | 0.00 | 89 | 1000.2 |
| 20260505083904 | 57 | 151 | 7.0 | 11.0 | 0.00 | 0.00 | 0.00 | 89 | 1000.2 |
| 20260505082916 | 57 | 144 | 7.0 | 11.0 | 0.00 | 0.00 | 0.00 | 88 | 1000.2 |
| 20260505081852 | 58 | 188 | 7.0 | 12.0 | 0.00 | 0.00 | 0.00 | 88 | 1000.2 |
| 20260505080859 | 58 | 148 | 9.0 | 12.0 | 0.00 | 0.00 | 0.00 | 88 | 1000.2 |
| 20260505075905 | 58 | 147 | 8.0 | 12.0 | 0.00 | 0.00 | 0.00 | 87 | 1000.2 |
| 20260505075406 | 58 | 136 | 6.0 | 11.0 | 0.00 | 0.00 | 0.00 | 87 | 1000.2 |
| 20260505074845 | 58 | 146 | 9.0 | 11.0 | 0.00 | 0.00 | 0.00 | 87 | 1000.2 |
| 20260505073905 | 59 | 148 | 6.0 | 13.0 | 0.00 | 0.00 | 0.00 | 87 | 1000.2 |
| 20260505073404 | 59 | 172 | 9.0 | 13.0 | 0.00 | 0.00 | 0.00 | 87 | 1000.2 |
| 20260505072357 | 59 | 159 | 9.0 | 11.0 | 0.00 | 0.00 | 0.00 | 86 | 1000.2 |
| 20260505071356 | 59 | 150 | 9.0 | 14.0 | 0.00 | 0.00 | 0.00 | 86 | 1000.2 |
| 20260505070851 | 59 | 150 | 10.0 | 14.0 | 0.00 | 0.00 | 0.00 | 87 | 1000.2 |
| 20260505065918 | 60 | 163 | 10.0 | 11.0 | 0.00 | 0.00 | 0.00 | 86 | 1000.2 |
| 20260505065400 | 60 | 167 | 10.0 | 12.0 | 0.00 | 0.00 | 0.00 | 86 | 1000.2 |
| 20260505064406 | 60 | 154 | 11.0 | 15.0 | 0.00 | 0.00 | 0.00 | 84 | 1000.2 |
| 20260505063402 | 60 | 158 | 8.0 | 11.0 | 0.00 | 0.00 | 0.00 | 83 | 1000.2 |
| 20260505062852 | 61 | 169 | 6.0 | 11.0 | 0.00 | 0.00 | 0.00 | 83 | 1000.2 |
| 20260505061859 | 61 | 181 | 6.0 | 9.0 | 0.00 | 0.00 | 0.00 | 81 | 1000.2 |
| 20260505061354 | 61 | 216 | 2.0 | 7.0 | 0.00 | 0.00 | 0.00 | 79 | 1000.2 |
| 20260505060851 | 62 | 192 | 3.0 | 11.0 | 0.00 | 0.00 | 0.00 | 80 | 1000.2 |
| 20260505055907 | 63 | 172 | 5.0 | 9.0 | 0.00 | 0.00 | 0.00 | 79 | 1000.2 |
| 20260505054853 | 63 | 167 | 4.0 | 7.0 | 0.00 | 0.00 | 0.00 | 80 | 1000.2 |
| 20260505054350 | 62 | 166 | 2.0 | 6.0 | 0.00 | 0.00 | 0.00 | 82 | 1000.2 |
| 20260505053358 | 63 | 201 | 2.0 | 3.0 | 0.00 | 0.00 | 0.00 | 83 | 1000.2 |
| 20260505052404 | 63 | 224 | 2.0 | 6.0 | 0.00 | 0.00 | 0.00 | 81 | 1000.2 |
| 20260505051402 | 63 | 222 | 4.0 | 7.0 | 0.00 | 0.00 | 0.00 | 81 | 1000.2 |
| 20260505050409 | 64 | 192 | 6.0 | 9.0 | 0.00 | 0.00 | 0.00 | 80 | 1000.2 |
| 20260505041404 | 66 | 161 | 3.0 | 8.0 | 0.00 | 0.00 | 0.00 | 79 | 1000.2 |
| 20260505040903 | 66 | 158 | 5.0 | 8.0 | 0.00 | 0.00 | 0.00 | 78 | 1000.2 |
| 20260505035903 | 67 | 190 | 4.0 | 6.0 | 0.00 | 0.00 | 0.00 | 77 | 1000.2 |
| 20260505035401 | 67 | 218 | 1.0 | 6.0 | 0.00 | 0.00 | 0.00 | 72 | 1000.2 |
| 20260505034851 | 68 | 173 | 3.0 | 8.0 | 0.00 | 0.00 | 0.00 | 75 | 1000.2 |
| 20260505033910 | 68 | 167 | 5.0 | 7.0 | 0.00 | 0.00 | 0.00 | 71 | 1000.2 |
| 20260505032914 | 69 | 195 | 1.0 | 4.0 | 0.00 | 0.00 | 0.00 | 69 | 1000.2 |
| 20260505032400 | 68 | 195 | 2.0 | 4.0 | 0.00 | 0.00 | 0.00 | 67 | 1000.2 |
| 20260505031401 | 69 | 262 | 0.0 | 3.0 | 0.00 | 0.00 | 0.00 | 71 | 1000.2 |
| 20260505030359 | 71 | 281 | 1.0 | 5.0 | 0.00 | 0.00 | 0.00 | 64 | 1000.2 |
| 20260505025349 | 72 | 280 | 2.0 | 8.0 | 0.00 | 0.00 | 0.00 | 58 | 1000.2 |
| 20260505023902 | 73 | 286 | 3.0 | 8.0 | 0.00 | 0.00 | 0.00 | 57 | 1000.2 |
| 20260505022901 | 74 | 284 | 4.0 | 8.0 | 0.00 | 0.00 | 0.00 | 55 | 1000.2 |
| 20260505021900 | 74 | 271 | 4.0 | 9.0 | 0.00 | 0.00 | 0.00 | 56 | 1000.2 |
| 20260505021352 | 75 | 278 | 4.0 | 8.0 | 0.00 | 0.00 | 0.00 | 55 | 1000.2 |
| 20260505020348 | 75 | 274 | 4.0 | 8.0 | 0.00 | 0.00 | 0.00 | 55 | 1000.2 |
| 20260505015415 | 76 | 272 | 6.0 | 11.0 | 0.00 | 0.00 | 0.00 | 54 | 1000.2 |
| 20260505014859 | 75 | 254 | 3.0 | 9.0 | 0.00 | 0.00 | 0.00 | 59 | 1000.2 |
| 20260505013859 | 73 | 263 | 2.0 | 4.0 | 0.00 | 0.00 | 0.00 | 59 | 1000.2 |
| 20260505012902 | 72 | 265 | 1.0 | 4.0 | 0.00 | 0.00 | 0.00 | 62 | 1000.2 |
| 20260505012353 | 71 | 257 | 2.0 | 4.0 | 0.00 | 0.00 | 0.00 | 69 | 1000.2 |